When you browse on this site, cookies collect data to enhance your experience and personalize the content and advertising you see.
Visit our Privacy Policy to learn more. By continuing to use the site, you agree to this use of cookies and data.
  • In Switzerland
  • List of Countries
  • For 7 days
  • Water Temperature
  • Weather Map
  • Weather Widgets
  • user-avatar
    Login

    Hourly Weather Darwin

    Today, 3 June, Wednesday

    Time Temperature Precipitation Wind Pressure Humidity
    00:00 +24°C° 0 mm 6 mps 762 mmHg 44%
    01:00 +23°C° 0 mm 6 mps 762 mmHg 46%
    02:00 +23°C° 0 mm 6 mps 762 mmHg 49%
    03:00 +22°C° 0 mm 6 mps 761 mmHg 52%
    04:00 +21°C° 0 mm 7 mps 762 mmHg 54%
    05:00 +20°C° 0 mm 7 mps 762 mmHg 56%
    06:00 +18°C° 0 mm 7 mps 762 mmHg 58%
    07:00 +21°C° 0 mm 7 mps 762 mmHg 53%
    08:00 +23°C° 0 mm 8 mps 762 mmHg 48%
    09:00 +26°C° 0 mm 8 mps 763 mmHg 41%
    10:00 +28°C° 0 mm 7 mps 762 mmHg 36%
    11:00 +30°C° 0 mm 7 mps 762 mmHg 30%
    12:00 +32°C° 0 mm 6 mps 761 mmHg 25%
    13:00 +33°C° 0 mm 5 mps 760 mmHg 24%
    14:00 +34°C° 0 mm 4 mps 760 mmHg 23%
    15:00 +34°C° 0 mm 3 mps 759 mmHg 22%
    16:00 +31°C° 0 mm 3 mps 759 mmHg 25%
    17:00 +29°C° 0 mm 2 mps 759 mmHg 28%
    18:00 +27°C° 0 mm 1 mps 760 mmHg 31%
    19:00 +26°C° 0 mm 2 mps 760 mmHg 31%
    20:00 +25°C° 0 mm 2 mps 761 mmHg 30%
    21:00 +22°C° 0 mm 3 mps 761 mmHg 30%
    22:00 +22°C° 0 mm 4 mps 761 mmHg 31%
    23:00 +22°C° 0 mm 5 mps 761 mmHg 32%

    Tomorrow, 4 June, Thursday

    Time Temperature Precipitation Wind Pressure Humidity
    00:00 +21°C° 0 mm 7 mps 762 mmHg 33%
    01:00 +21°C° 0 mm 7 mps 762 mmHg 39%
    02:00 +20°C° 0 mm 6 mps 761 mmHg 44%
    03:00 +20°C° 0 mm 6 mps 761 mmHg 50%
    04:00 +19°C° 0 mm 6 mps 761 mmHg 55%
    05:00 +19°C° 0 mm 6 mps 762 mmHg 60%
    06:00 +17°C° 0 mm 7 mps 762 mmHg 65%
    07:00 +20°C° 0 mm 7 mps 762 mmHg 64%
    08:00 +21°C° 0 mm 7 mps 762 mmHg 62%
    09:00 +23°C° 0 mm 7 mps 762 mmHg 60%
    10:00 +26°C° 0 mm 6 mps 762 mmHg 52%
    11:00 +28°C° 0 mm 6 mps 761 mmHg 45%
    12:00 +32°C° 0 mm 5 mps 761 mmHg 37%
    13:00 +32°C° 0 mm 4 mps 760 mmHg 35%
    14:00 +33°C° 0 mm 4 mps 759 mmHg 33%
    15:00 +33°C° 0 mm 3 mps 759 mmHg 32%
    16:00 +31°C° 0 mm 3 mps 759 mmHg 36%
    17:00 +29°C° 0 mm 3 mps 759 mmHg 40%
    18:00 +27°C° 0 mm 3 mps 759 mmHg 45%
    19:00 +26°C° 0 mm 2 mps 760 mmHg 46%
    20:00 +24°C° 0 mm 2 mps 760 mmHg 47%
    21:00 +23°C° 0 mm 2 mps 761 mmHg 48%
    22:00 +21°C° 0 mm 3 mps 761 mmHg 45%
    23:00 +21°C° 0 mm 4 mps 761 mmHg 42%

    Day after tomorrow, 5 June, Friday

    Time Temperature Precipitation Wind Pressure Humidity
    00:00 +20°C° 0 mm 5 mps 761 mmHg 39%
    01:00 +20°C° 0 mm 5 mps 761 mmHg 44%
    02:00 +19°C° 0 mm 5 mps 760 mmHg 48%
    03:00 +19°C° 0 mm 6 mps 760 mmHg 53%
    04:00 +17°C° 0 mm 6 mps 760 mmHg 58%
    05:00 +17°C° 0 mm 6 mps 760 mmHg 64%
    06:00 +16°C° 0 mm 6 mps 760 mmHg 70%
    07:00 +19°C° 0 mm 6 mps 761 mmHg 66%
    08:00 +21°C° 0 mm 6 mps 761 mmHg 61%
    09:00 +23°C° 0 mm 6 mps 761 mmHg 57%
    10:00 +27°C° 0 mm 5 mps 761 mmHg 52%
    11:00 +29°C° 0 mm 5 mps 760 mmHg 46%
    12:00 +32°C° 0 mm 4 mps 760 mmHg 41%
    13:00 +33°C° 0 mm 3 mps 759 mmHg 38%
    14:00 +34°C° 0 mm 3 mps 759 mmHg 35%
    15:00 +34°C° 0 mm 3 mps 758 mmHg 33%
    16:00 +31°C° 0 mm 2 mps 758 mmHg 44%
    17:00 +28°C° 0 mm 2 mps 758 mmHg 55%
    18:00 +26°C° 0 mm 2 mps 758 mmHg 67%
    19:00 +25°C° 0 mm 2 mps 759 mmHg 70%
    20:00 +24°C° 0 mm 2 mps 759 mmHg 73%
    21:00 +23°C° 0 mm 2 mps 760 mmHg 76%
    22:00 +23°C° 0 mm 2 mps 760 mmHg 72%
    23:00 +21°C° 0 mm 2 mps 760 mmHg 69%

    6 June, Saturday

    Time Temperature Precipitation Wind Pressure Humidity
    00:00 +21°C° 0 mm 3 mps 759 mmHg 65%
    01:00 +20°C° 0 mm 4 mps 759 mmHg 59%
    02:00 +20°C° 0 mm 5 mps 759 mmHg 52%
    03:00 +19°C° 0 mm 5 mps 759 mmHg 46%
    04:00 +19°C° 0 mm 5 mps 759 mmHg 49%
    05:00 +17°C° 0 mm 5 mps 759 mmHg 52%
    06:00 +17°C° 0 mm 5 mps 759 mmHg 56%
    07:00 +20°C° 0 mm 5 mps 759 mmHg 55%
    08:00 +22°C° 0 mm 5 mps 760 mmHg 54%
    09:00 +25°C° 0 mm 5 mps 760 mmHg 53%
    10:00 +27°C° 0 mm 4 mps 759 mmHg 48%
    11:00 +30°C° 0 mm 4 mps 759 mmHg 42%
    12:00 +33°C° 0 mm 3 mps 759 mmHg 37%
    13:00 +34°C° 0 mm 3 mps 758 mmHg 36%
    14:00 +34°C° 0 mm 3 mps 757 mmHg 35%
    15:00 +35°C° 0 mm 3 mps 757 mmHg 34%
    16:00 +31°C° 0 mm 3 mps 757 mmHg 45%
    17:00 +29°C° 0 mm 2 mps 757 mmHg 57%
    18:00 +26°C° 0 mm 2 mps 757 mmHg 68%
    19:00 +26°C° 0 mm 2 mps 758 mmHg 71%
    20:00 +25°C° 0 mm 1 mps 758 mmHg 73%
    21:00 +24°C° 0 mm 1 mps 759 mmHg 75%
    22:00 +24°C° 0 mm 2 mps 759 mmHg 73%
    23:00 +24°C° 0 mm 2 mps 759 mmHg 71%

    7 June, Sunday

    Time Temperature Precipitation Wind Pressure Humidity
    00:00 +24°C° 0 mm 3 mps 758 mmHg 69%
    01:00 +22°C° 0 mm 3 mps 758 mmHg 67%
    02:00 +22°C° 0 mm 3 mps 758 mmHg 65%
    03:00 +22°C° 0 mm 3 mps 758 mmHg 62%
    04:00 +22°C° 0 mm 3 mps 758 mmHg 66%
    05:00 +22°C° 0 mm 3 mps 758 mmHg 70%
    06:00 +22°C° 0 mm 4 mps 758 mmHg 74%
    07:00 +23°C° 0 mm 4 mps 759 mmHg 70%
    08:00 +26°C° 0 mm 4 mps 759 mmHg 66%
    09:00 +28°C° 0 mm 5 mps 759 mmHg 62%
    10:00 +30°C° 0 mm 4 mps 759 mmHg 56%
    11:00 +33°C° 0 mm 4 mps 758 mmHg 50%
    12:00 +35°C° 0 mm 3 mps 758 mmHg 44%
    13:00 +36°C° 0 mm 4 mps 757 mmHg 42%
    14:00 +36°C° 0 mm 4 mps 756 mmHg 41%
    15:00 +37°C° 0 mm 5 mps 756 mmHg 39%
    16:00 +35°C° 0 mm 4 mps 756 mmHg 46%
    17:00 +33°C° 0 mm 4 mps 756 mmHg 53%
    18:00 +30°C° 0 mm 3 mps 756 mmHg 61%
    19:00 +29°C° 0 mm 3 mps 757 mmHg 65%
    20:00 +28°C° 0 mm 2 mps 757 mmHg 70%
    21:00 +26°C° 0 mm 2 mps 758 mmHg 75%
    22:00 +26°C° 0 mm 2 mps 758 mmHg 73%
    23:00 +26°C° 0 mm 3 mps 758 mmHg 72%

    8 June, Monday

    Time Temperature Precipitation Wind Pressure Humidity
    00:00 +26°C° 0 mm 3 mps 758 mmHg 71%
    01:00 +26°C° 0 mm 4 mps 758 mmHg 70%
    02:00 +25°C° 0 mm 4 mps 758 mmHg 68%
    03:00 +25°C° 0 mm 5 mps 757 mmHg 67%
    04:00 +25°C° 0 mm 5 mps 758 mmHg 67%
    05:00 +23°C° 0 mm 6 mps 758 mmHg 67%
    06:00 +23°C° 0 mm 6 mps 758 mmHg 67%
    07:00 +24°C° 0 mm 6 mps 759 mmHg 61%
    08:00 +27°C° 0 mm 6 mps 759 mmHg 56%
    09:00 +28°C° 0 mm 6 mps 759 mmHg 50%
    10:00 +30°C° 0 mm 5 mps 759 mmHg 46%
    11:00 +33°C° 0 mm 4 mps 759 mmHg 42%
    12:00 +35°C° 0 mm 4 mps 758 mmHg 38%
    13:00 +35°C° 0 mm 3 mps 758 mmHg 37%
    14:00 +36°C° 0 mm 3 mps 757 mmHg 36%
    15:00 +37°C° 0 mm 2 mps 756 mmHg 35%
    16:00 +34°C° 0 mm 2 mps 757 mmHg 43%
    17:00 +31°C° 0 mm 2 mps 757 mmHg 51%
    18:00 +29°C° 0 mm 2 mps 757 mmHg 59%
    19:00 +28°C° 0 mm 1 mps 758 mmHg 63%
    20:00 +27°C° 0 mm 1 mps 758 mmHg 67%
    21:00 +26°C° 0 mm 1 mps 759 mmHg 72%
    22:00 +26°C° 0 mm 1 mps 759 mmHg 71%
    23:00 +26°C° 0 mm 2 mps 759 mmHg 70%
    Show more